#timestamp,LO_Frequency,Hit,StdDev 
1544688015.8,286047002.7,N
1544688035.7,286047001.4,N
1544688055.5,286047003.8,N
1544688075.3,286047004.4,N
1544688095.2,286047003.9,N
1544688115.9,286047004.4,N
1544688135.7,286047004.2,N
1544688155.6,286047002.1,N
1544688175.4,286047002.7,N
1544688195.3,286047000.0,N
1544688215.1,286047000.3,N
1544688235.8,286046999.8,N
1544688255.7,286047000.9,N
1544688275.5,286047011.9,Y
1544688295.4,286046998.1,P
1544688315.2,286046998.6,N
1544688335.0,286046999.2,N
1544688335.9,286046999.2,N
1544688355.8,286046996.6,Y
1544688375.6,286046998.4,P
1544688395.5,286046999.2,N
1544688415.3,286046998.2,P
1544688435.1,286046999.8,N
1544688455.9,286047002.1,Y
1544688475.7,286047002.5,P
1544688495.6,286047002.6,N
1544688515.4,286047000.2,N
1544688535.2,286047000.6,N
1544688555.1,286047002.2,N
1544688556.0,286047002.2,N
1544688575.8,286047002.8,N
1544688595.7,286047002.7,N
1544688615.5,286047001.1,N
1544688635.3,286047001.1,N
1544688655.2,286046998.8,N
1544688675.9,286046998.3,N
1544688695.7,286047000.6,N
1544688715.6,286047000.6,N
1544688735.4,286047002.0,N
1544688755.2,286047001.3,N
1544688775.1,286047001.5,N
1544688776.0,286047001.5,N
1544688795.8,286047000.2,N
1544688815.7,286047002.3,N
1544688835.5,286047001.6,N
1544688855.3,286047004.2,Y
1544688875.2,286047000.1,P
1544688895.0,286046999.8,N
1544688895.9,286046999.8,N
1544688915.8,286047002.4,Y
1544688935.6,286047000.2,P
1544688955.4,286047000.2,P
1544688975.3,286046998.2,P
1544688995.1,286047000.6,N
1544689015.9,286047002.8,Y
1544689035.7,286047001.5,P
1544689055.5,286047002.1,N
1544689075.4,286047001.5,N
1544689095.2,286047004.3,Y
1544689115.1,286047002.3,P
1544689116.0,286047002.3,P
1544689135.8,286047001.1,N
1544689155.6,286047000.6,N
1544689175.5,286047000.0,N
1544689195.3,286047000.4,N
1544689215.2,286047000.4,N
1544689235.9,286047002.5,Y
1544689255.7,286047002.2,P
1544689275.6,286046999.7,N
1544689295.4,286047002.0,N
1544689315.3,286047002.2,N
1544689335.1,286047001.9,N
1544689355.8,286047003.2,Y
1544689375.6,286047001.6,P
1544689395.5,286047002.3,P
1544689415.3,286046998.2,P
1544689435.2,286046998.3,N
1544689455.9,286046999.3,N
1544689475.7,286046996.5,N
1544689495.6,286046999.6,N
1544689515.4,286047001.1,N
1544689535.3,286047000.8,N
1544689555.1,286046999.7,N
1544689556.0,286046999.7,N
1544689575.8,286047004.0,N
1544689595.7,286047002.9,N
1544689615.5,286047004.3,N
1544689635.3,286047003.2,N
1544689655.2,286047003.8,N
1544689675.0,286047004.4,N
1544689675.9,286047004.4,N
1544689695.8,286047004.0,N
1544689715.6,286047004.0,N
1544689735.4,286047002.3,N
1544689755.3,286047002.7,N
1544689775.1,286046998.3,N
1544689795.8,286046998.8,N
1544689815.7,286046998.9,N
1544689835.5,286046999.0,N
1544689855.4,286046998.9,N
1544689875.2,286046998.2,N
1544689895.0,286047000.1,N
1544689895.9,286047000.1,N
1544689915.8,286047000.6,N
1544689935.6,286046998.2,N
1544689955.4,286046998.9,N
1544689975.3,286046997.4,N
1544689995.1,286046997.7,N
1544690015.9,286046998.0,N
1544690035.7,286046997.7,N
1544690055.5,286046995.5,N
1544690075.4,286046995.9,N
1544690095.2,286046994.9,N
1544690115.5,286046997.5,N
1544690135.3,286046995.1,N
1544690155.2,286046995.6,N
1544690175.9,286046995.7,N
1544690195.7,286046995.8,N
1544690215.6,286046997.5,N
1544690235.4,286046995.1,N
1544690255.2,286046997.7,N
1544690275.1,286046997.2,N
1544690276.0,286046997.2,N
1544690295.8,286046997.4,N
1544690315.7,286046994.9,N
1544690335.5,286046995.2,Y
1544690355.3,286046999.1,P
1544690375.2,286046996.9,P
1544690395.0,286046997.1,P
1544690395.9,286046997.1,Y
1544690415.8,286046999.3,P
1544690435.6,286046999.3,N
1544690455.4,286047000.7,N
1544690475.3,286047000.3,N
1544690495.1,286047000.9,N
1544690515.8,286047000.8,N
1544690535.7,286047000.1,N
1544690555.5,286047002.5,N
1544690575.4,286047000.1,N
1544690595.2,286046998.2,N
1544690615.0,286046998.5,N
1544690615.9,286046998.5,N
1544690635.8,286047000.6,N
1544690655.6,286047000.2,N
1544690675.4,286047000.9,N
1544690695.3,286047000.7,N
1544690715.1,286046999.8,N
1544690735.9,286046999.8,N
1544690755.7,286046999.7,N
1544690775.5,286047000.9,N
1544690795.4,286046998.6,N
1544690815.2,286046999.5,N
1544690835.0,286046998.2,N
1544690836.0,286046998.2,N
1544690855.8,286046998.4,N
1544690875.6,286046999.0,N
1544690895.5,286046998.6,N
1544690915.3,286047001.1,N
1544690935.1,286047001.0,N
1544690955.9,286047000.7,N
1544690975.7,286046998.8,N
1544690995.5,286046998.7,N
1544691015.4,286046999.6,N
1544691035.2,286046998.4,N
1544691055.1,286046999.2,N
1544691075.9,286046996.8,N
1544691095.7,286046999.6,N
1544691115.6,286046996.6,N
1544691135.4,286046996.5,Y
1544691155.3,286046998.5,P
1544691175.1,286047000.7,N
1544691176.0,286047000.7,N
1544691195.8,286047001.0,N
1544691215.7,286046999.9,N
1544691235.5,286047000.4,N
1544691255.3,286047000.8,N
1544691275.2,286047001.0,N
1544691295.0,286046998.5,N
1544691295.9,286046998.5,N
1544691315.8,286046999.3,N
1544691335.6,286046997.8,N
1544691355.4,286046997.3,N
1544691375.3,286046997.0,N
1544691395.1,286046999.2,N
1544691415.8,286046996.8,N
1544691435.7,286046996.8,N
1544691455.5,286046996.6,N
1544691475.4,286046999.4,N
1544691495.2,286046997.6,N
1544691515.0,286046996.5,N
1544691515.9,286046996.5,N
1544691535.8,286046997.4,N
1544691555.6,286046997.4,N
1544691575.4,286046997.3,N
1544691595.3,286046997.1,N
